Weather in Puno

Peru     15°50′02″S   70°01′38″W
В апреле 2022 года жителям России запретили посещать сайт meteo.paraplan.net по решению Генеральной прокуратуры. Аудитория сайта уменьшилась в 10 раз. Владельцы сайта не видят смысла в поддержке погодного сервера в таких условиях. Сайт будет закрыт в октябре.
temp.,
°C
wind,
m/s
gust,
m/s
humid.,
%
clouds,
%
prec.,
mm/h
press.,
hPa
HPBL,
m
3 october, mon
mon301:00+6w237512 0.4 1020306
04:00+5nnw228229 0.0 1021190
07:00+6nnw337662 0.0 1022385
10:00+10ne22525 0.0 10191047
13:00+11ene645012 0.0 10131054
16:00+10s8960100 0.6 1011483
19:00+9e346451 1.0 1015242
22:00+9n0165100 0.2 1017147
4 october, tue
tue401:00+8wsw2264100 0.3 1016161
04:00+7wsw224891 0.0 1016124
07:00+8wsw223775 0.0 1018324
10:00+12nne13265 0.0 10151277
13:00+13ne562728 0.0 10092005
16:00+13ene673779 0.0 1006683
19:00+11se443621 0.0 1009124
22:00+9w353750 0.0 1015465
5 october, wed
wed501:00+6wsw334320 0.0 1016191
04:00+4wsw33463 0.0 1017144
07:00+7wsw233422 0.0 1018325
10:00+11n1323100 0.0 10161306
13:00+12ne462493 0.0 10102016
16:00+13e442925 0.0 1006939
19:00+11s452823 0.0 1011130
22:00+8sw12335 0.0 1016111
6 october, thu
thu601:00+6wsw234016 0.0 1017107
04:00+4wsw1137100 0.0 101799
07:00+7w1127100 0.0 1020255
10:00+10ne3225100 0.0 1018992
13:00+12ene6423100 0.0 10121417
16:00+13ene78293 0.0 1008415
19:00+11sse610248 0.0 1013261
22:00+8s361916 0.0 1017173
7 october, fri
fri701:00+6wsw22205 0.0 101774
04:00+5ssw221993 0.0 101889
07:00+8w01195 0.0 1020238
10:00+10ene543817 0.0 1018948
13:00+12ene5430100 0.0 1013901
16:00+13e88300 0.0 1007462
19:00+10ese57620 0.0 1011261
22:00+8se44655 0.1 1015206